Startseite
Über Mich
AHP4
Galerie
Sehschlangen
Tourenbuch
Bookmarks
Elektronik
Bewertung
Geschichten
[Tagesmessung] [Jahreswerte] [Information]

Messwerte vom 18.02.2022

Die letzten Messwerte von 23:58:46 Uhr:
KategorieMesswert
Temperatur [°C]7
Luftdruck [mBar]980
Sonneneinstrahlung0
Wind [km/h]0 aus Ost
Niederschlag [l/m²]0
rel.Luftfeucht.58.8%
CO2 [ppm]551

Diagramme
Messwerte vom 18.02.2022
Tagesaggregation
KategorieMinimumMaximumSchnittSumme
Temperatur [°C]3126.4708
Luftdruck [mBar]972992983.2333
Sonneneinstrahlung19773.4688
Wind [km/h]36
rF [%]58.696.685.64
Niederschlag [l/m²]2.06
CO2 [ppm]436781659.8
Einordnung alsVegetationstag

Messungen an benachbarten Tagen: Zur Jahresaggregation 2022
Tabelle aller Messwerte
UhrzeitTemperatur [°C]Luftdruck [mBar]SonneWind [km/h]RichtungRegen [l/m²]rF [%]CO2 [ppm]
00:01:45 5 991 0 5 SW 0 77.4 559
00:04:48 4 991 0 6 SW 0 77.6 557
00:07:45 4 991 0 6 O 0 77.7 550
00:10:46 4 991 0 10 S 0 77.9 559
00:13:45 4 991 0 3 W 0 78 562
00:16:45 4 991 0 3 SO 0 78.1 561
00:19:45 4 991 0 2 O 0 78.2 563
00:22:45 4 991 0 7 SW 0 78.4 565
00:25:46 4 991 0 2 SW 0 78.9 568
00:28:48 4 991 0 15 NW 0 79.1 571
00:31:45 4 991 0 2 SW 0 79.2 571
00:34:47 4 991 0 5 N 0 79.1 585
00:37:47 4 992 0 8 W 0 79.2 589
00:40:49 4 991 0 7 SO 0 79.4 592
00:43:46 4 991 0 4 SW 0 79.4 595
00:46:45 4 991 0 8 W 0 79.4 597
00:49:47 4 991 0 8 NW 0 79.5 601
00:52:45 4 991 0 11 W 0 79.6 594
00:55:46 4 991 0 4 SW 0 79.6 592
00:58:44 4 991 0 3 N 0 79.4 591
01:01:46 4 991 0 4 W 0 79.2 590
01:04:46 5 991 0 4 W 0 78.6 592
01:07:45 4 991 0 3 SO 0 78.5 592
01:10:47 5 991 0 2 SW 0 78.6 605
01:13:48 5 991 0 10 SW 0 78.7 617
01:16:46 5 991 0 2 SW 0 78.7 620
01:19:44 5 991 0 4 W 0 78.6 616
01:22:47 5 991 0 2 N 0 78.4 606
01:25:44 5 991 0 2 S 0 78.2 617
01:28:47 5 991 0 4 SW 0 77.9 615
01:31:49 5 991 0 2 NW 0 77.9 618
01:34:45 5 991 0 0 O 0 77.8 622
01:37:47 5 991 0 4 SO 0 78 627
01:40:46 5 992 0 3 W 0 78.3 630
01:43:47 5 992 0 12 SW 0 80.7 627
01:46:47 5 992 0 8 S 0 82.7 620
01:49:44 4 991 0 5 W 0 85.1 618
01:52:47 4 992 0 9 W 0 86.8 617
01:55:48 4 992 0 4 NW 0 87.8 621
01:58:50 4 992 0 5 SW 0 89.8 624
02:01:45 4 991 0 3 O 0 90.2 630
02:04:51 4 992 0 20 S 0 90.8 626
02:07:48 4 992 0 9 SW 0 91.3 625
02:10:48 4 992 0 9 SW 0 91.2 629
02:13:47 4 991 0 2 W 0 90.8 635
02:16:45 4 992 0 4 S 0 90.4 638
02:19:47 4 992 0 0 SW 0 90.3 638
02:22:48 4 992 0 3 NW 0 90 645
02:25:48 4 991 0 9 SW 0 89.9 652
02:28:46 4 991 0 0 O 0 90.2 651
02:31:48 4 992 0 0 W 0 90.2 652
02:34:46 4 992 0 0 N 0 90.2 650
02:37:49 4 992 0 2 NW 0 89.8 649
02:40:47 4 992 0 3 W 0 89.1 650
02:43:47 4 991 0 2 NW 0 88.4 644
02:46:46 4 991 0 5 SW 0 87.9 656
02:49:47 5 992 0 1 NW 0 87.4 656
02:52:47 5 992 0 5 W 0 87.2 656
02:55:47 5 991 0 3 NW 0 87.2 653
02:58:46 5 992 0 6 SW 0 87.1 664
03:01:47 5 992 0 2 S 0 87.2 662
03:04:46 5 991 0 2 W 0 87.1 662
03:07:45 5 991 0 5 O 0 87 662
03:10:48 5 992 0 2 SO 0 87.4 666
03:13:46 5 992 0 7 SW 0 87.6 662
03:16:46 5 991 0 1 S 0 87.3 662
03:19:45 5 992 0 8 S 0 87.3 664
03:22:47 5 992 0 5 SW 0 87.4 671
03:25:47 5 992 0 5 SO 0 87.6 676
03:28:46 5 991 0 7 O 0 87.6 680
03:31:46 5 991 0 4 W 0 87.8 683
03:34:46 5 992 0 3 SW 0 87.9 671
03:37:47 5 992 0 2 SO 0 88 671
03:40:50 5 992 0 2 S 0 88 680
03:43:49 5 992 0 0 NW 0 88.3 679
03:46:47 5 992 0 3 SO 0 88.6 689
03:49:48 5 991 0 4 SW 0 88.7 688
03:52:47 5 992 0 4 SW 0 89.1 692
03:55:47 5 991 0 9 W 0 89.2 691
03:58:46 5 991 0 1 S 0 89.3 688
04:01:48 5 991 0 2 O 0 89.4 685
04:04:48 5 992 0 1 SW 0 89.4 689
04:07:45 5 991 0 0 W 0 89.4 695
04:10:46 4 991 0 2 NW 0 90 697
04:13:45 4 991 0 0 S 0 90.3 694
04:16:46 4 991 0 1 SO 0 90.8 700
04:19:46 4 991 0 12 SW 0 91.3 697
04:22:46 4 991 0 2 O 0 91.8 697
04:25:48 4 991 0 0 S 0 92 691
04:28:45 4 991 0 1 O 0 92.2 691
04:31:44 4 992 0 4 S 0 92.6 693
04:34:46 4 992 0 2 W 0 92.7 700
04:37:45 4 992 0 3 S 0 92.6 697
04:40:45 4 991 0 4 S 0 92.6 697
04:43:48 4 992 0 3 S 0 92.8 696
04:46:46 4 991 0 1 SW 0 92.8 700
04:49:47 4 991 0 0 S 0 93.2 712
04:52:47 4 991 0 2 SW 0 93.7 712
04:55:47 4 992 0 2 S 0 93.9 717
04:58:46 3 992 0 3 SW 0 94.1 712
05:01:46 3 992 0 4 SO 0 94.7 712
05:04:46 3 991 0 1 S 0 95.1 705
05:07:47 3 992 0 2 SW 0 95.4 705
05:10:46 3 992 0 2 S 0 95.4 705
05:13:45 3 991 0 3 S 0 95.5 710
05:16:44 3 991 0 2 S 0 95.6 717
05:19:46 3 992 0 2 S 0 96 731
05:22:47 3 991 0 2 S 0 95.9 744
05:25:44 3 991 0 1 S 0 95.8 749
05:28:45 3 991 0 0 0 95.9 750
05:31:46 3 991 0 2 W 0 95.8 743
05:34:44 3 991 0 3 O 0 95.8 737
05:37:46 3 992 0 0 S 0 95.8 735
05:40:47 3 992 0 1 SO 0 95.8 729
05:43:49 3 992 0 1 SW 0 95.8 725
05:46:48 3 992 0 0 SO 0 95.6 720
05:49:48 3 991 0 3 W 0 95.2 729
05:52:46 3 992 0 0 SW 0 95.1 730
05:55:47 3 992 0 1 SW 0 95 735
05:58:44 3 992 0 4 SW 0 95 735
06:01:48 3 991 0 1 SW 0 95.4 736
06:04:46 3 991 0 0 O 0 96 742
06:07:47 3 991 0 0 SW 0 96.6 730
06:10:46 3 991 0 3 NW 0 96.6 733
06:13:48 3 991 0 4 O 0 96.6 732
06:16:47 3 991 0 0 NO 0 96.6 736
06:19:47 3 991 0 2 S 0 96.6 730
06:22:45 3 991 0 0 S 0 96.6 740
06:25:46 3 991 0 1 SW 0 96.6 735
06:28:45 3 991 0 0 S 0 96.6 729
06:31:46 4 992 0 5 SO 0 96.6 735
06:34:45 4 991 0 4 S 0 96.6 736
06:37:48 4 991 0 2 SW 0 96.4 735
06:40:46 4 991 0 0 W 0 96.3 734
06:43:45 4 991 0 0 0 96.1 731
06:46:47 4 991 0 0 S 0 96 723
06:49:47 4 991 0 1 SO 0 95.9 730
06:52:47 4 991 0 1 SO 0 96 729
06:55:48 4 991 0 2 SO 0 96.1 735
06:58:47 4 991 0 1 S 0 96.1 739
07:01:47 3 991 0 1 SO 0 96 741
07:04:45 3 991 4 2 SO 0 95.9 735
07:07:48 3 991 8 0 SO 0 95.9 726
07:10:47 3 991 11 2 SO 0 96.3 723
07:13:48 4 991 16 3 S 0 96.6 726
07:16:46 4 991 23 2 S 0 96.6 736
07:19:48 4 991 31 2 S 0 96.6 743
07:22:48 4 991 43 0 SW 0 96.6 749
07:25:46 4 991 54 0 S 0 96.4 755
07:28:46 4 991 61 0 S 0 96.3 757
07:31:47 4 991 67 1 SW 0 96.2 757
07:34:49 4 991 75 1 SW 0 96.4 756
07:37:47 4 991 82 1 O 0 96.6 760
07:40:47 4 991 90 4 S 0 96.6 746
07:43:49 4 991 100 1 SW 0 96.6 735
07:46:48 4 991 108 2 SW 0 96.6 728
07:49:46 4 991 114 3 S 0 96.5 746
07:52:46 4 991 120 1 S 0 96.4 750
07:55:46 4 991 126 3 S 0 96.2 754
07:58:47 4 991 132 3 S 0 96 742
08:01:47 4 991 138 1 O 0 96 739
08:04:48 4 991 145 3 S 0 96 732
08:07:48 4 991 154 7 SO 0 96.1 724
08:10:47 4 991 161 4 S 0 96 709
08:13:50 4 991 165 4 S 0 95.8 715
08:16:48 5 991 167 4 SW 0 95.7 715
08:19:49 5 990 167 4 S 0 95.3 712
08:22:47 5 991 166 3 W 0 94.9 700
08:25:48 5 991 167 5 SW 0 94.6 700
08:28:47 5 991 171 5 S 0 94 700
08:31:47 5 990 177 3 SW 0 93.6 692
08:34:49 5 991 178 4 SO 0 92.9 697
08:37:48 5 991 174 5 SO 0 92.5 694
08:40:48 5 990 169 3 SW 0 92.1 685
08:43:46 5 991 179 3 S 0 91.9 685
08:46:47 5 990 183 6 SO 0 91.5 692
08:49:47 6 991 182 4 SO 0 90.8 689
08:52:48 6 990 182 5 S 0 90.2 688
08:55:49 6 990 184 9 S 0 90 673
08:58:49 6 990 185 7 SW 0 89.8 674
09:01:47 6 990 182 3 O 0 89.6 669
09:04:49 6 990 181 8 SO 0 89 671
09:07:49 6 990 182 6 SO 0 88.5 671
09:10:51 6 990 178 11 SW 0 88.2 680
09:13:47 6 990 182 7 S 0 88 679
09:16:49 6 989 189 14 SO 0 87.9 695
09:19:50 6 989 188 9 SW 0 87.4 701
09:22:47 6 989 195 2 S 0 87.2 714
09:25:52 6 989 194 2 SO 0 86.9 715
09:28:49 6 988 192 3 S 0 86.9 715
09:31:48 6 988 193 4 S 0 86.7 712
09:34:46 7 989 189 0 0 86.4 712
09:37:48 7 989 184 3 S 0 86.9 720
09:40:51 7 987 189 0 SO 0 86.7 724
09:43:47 7 988 186 2 S 0 87 720
09:46:49 7 988 187 2 SO 0 86.9 720
09:49:52 7 988 190 3 SO 0 86.9 733
09:52:47 7 987 186 1 SO 0 87 740
09:55:47 7 988 189 3 S 0 87.1 732
09:58:46 7 987 195 0 S 0 87.3 724
10:01:46 7 987 197 4 O 0 87.6 715
10:04:49 7 987 193 2 NW 0 87.6 723
10:07:48 7 987 188 8 S 0 87.9 724
10:10:46 7 987 187 6 S 0 87.8 733
10:13:47 7 987 190 4 SO 0 87.6 728
10:16:46 7 987 190 1 S 0 87.5 738
10:19:48 7 987 183 2 S 0 87.1 747
10:22:45 7 987 189 3 W 0 87.3 746
10:25:49 7 987 187 7 SW 0 86.4 743
10:28:47 7 987 191 5 S 0 86.2 739
10:31:45 7 987 190 4 SW 0 86.4 743
10:34:47 7 987 183 4 SO 0 86.7 755
10:37:47 7 987 189 1 S 0 86.6 762
10:40:45 7 987 190 3 S 0 86.8 762
10:43:50 7 987 191 7 SO 0 87 764
10:46:47 7 987 187 5 S 0 87.1 767
10:49:48 7 987 183 4 SO 0 87 767
10:52:49 7 987 179 7 SO 0 86.6 762
10:55:48 7 987 181 5 SO 0 86 762
10:58:49 7 987 185 2 SO 0 85.7 770
11:01:47 7 987 187 4 SO 0 86.1 765
11:04:48 7 986 186 8 S 0 85.6 759
11:07:46 7 987 185 8 S 0 85.5 757
11:10:47 7 987 190 11 0 85.3 755
11:13:46 7 987 194 7 S 0 84.9 755
11:16:45 7 986 191 6 S 0 85.6 755
11:19:46 7 987 192 3 S 0 85.8 761
11:22:47 7 987 191 7 SO 0 85.7 766
11:25:48 7 986 179 12 S 0 85.7 768
11:28:47 7 986 176 6 SO 0 85.8 767
11:31:47 7 986 186 7 S 0 86.3 767
11:34:48 7 985 190 4 SO 0 87 767
11:37:48 7 984 188 7 SO 0 87.7 770
11:40:47 6 985 184 18 S 0 89 764
11:43:47 6 985 179 3 S 0 90 763
11:46:47 6 985 178 4 SO 0.2575 90.7 762
11:49:49 6 984 178 3 SO 0 91.2 771
11:52:47 6 984 182 7 SO 0 91.8 764
11:55:46 6 985 181 5 S 0 92.9 764
11:58:49 6 984 177 16 SO 0 93.9 761
12:01:47 6 984 187 5 S 0 94.8 764
12:04:49 6 984 182 8 SO 0 95.1 765
12:07:47 6 984 184 6 SW 0 95.8 770
12:10:47 6 984 180 8 S 0 96.3 764
12:13:46 6 984 178 4 S 0 96.6 739
12:16:48 6 984 178 7 SO 0 96.6 732
12:19:48 6 984 178 11 S 0 96.6 732
12:22:47 6 984 179 9 SW 0.2575 96.6 750
12:25:46 6 984 171 7 SO 0 96.6 746
12:28:47 6 983 168 12 O 0 96.6 756
12:31:48 6 983 172 7 SW 0 96.6 756
12:34:46 6 983 173 6 S 0 96.6 751
12:37:47 6 983 171 5 SW 0 96.6 749
12:40:47 6 984 179 11 SO 0 96.6 741
12:43:46 6 983 175 6 SO 0 96.6 744
12:46:46 6 983 179 6 S 0 96.6 743
12:49:51 6 983 186 8 SO 0 96.6 751
12:52:45 6 983 189 7 S 0 96.6 753
12:55:47 6 983 189 9 SO 0 96.6 746
12:58:50 6 983 192 11 SO 0 96.6 754
13:01:47 6 982 190 3 SO 0 96.6 759
13:04:48 6 983 190 12 SW 0.2575 96.6 756
13:07:47 6 981 185 3 S 0 96.6 741
13:10:48 6 981 195 2 S 0 96.6 739
13:13:49 6 981 184 12 S 0.2575 96.6 736
13:16:48 6 982 185 14 SO 0 96.6 747
13:19:47 6 981 175 19 S 0 96.6 750
13:22:46 6 981 176 3 S 0 96.6 756
13:25:48 6 981 174 5 SO 0 96.6 750
13:28:47 6 980 181 10 S 0 96.6 751
13:31:47 6 980 183 11 S 0.2575 96.6 743
13:34:46 6 981 188 5 S 0 96.6 741
13:37:50 6 981 186 9 SW 0 96.6 748
13:40:48 6 980 188 5 SO 0 96.6 749
13:43:52 6 980 186 5 SW 0 96.6 753
13:46:48 6 980 189 7 SW 0 96.6 749
13:49:48 6 980 190 9 SO 0 96.6 747
13:52:47 6 980 189 9 S 0 96.6 747
13:55:46 7 980 190 6 SO 0 96.6 756
13:58:47 7 980 188 6 S 0 96.6 765
14:01:47 7 980 180 11 S 0 96.6 758
14:04:47 7 980 176 6 S 0 96.6 759
14:07:48 7 980 164 6 SO 0 96.6 764
14:10:50 7 980 170 4 S 0.2575 96.6 771
14:13:47 7 980 167 8 S 0 96.6 767
14:16:48 7 980 181 6 SO 0 96.6 764
14:19:50 7 980 189 5 S 0 96.6 759
14:22:45 7 980 185 3 0 96.6 761
14:25:47 7 980 190 3 S 0 96.6 756
14:28:49 7 980 192 6 S 0 96.6 759
14:31:46 7 980 190 4 W 0 96.6 759
14:34:44 7 979 194 2 S 0 96.6 762
14:37:47 7 979 193 2 SO 0 96.6 759
14:40:47 7 979 193 3 S 0 96.6 759
14:43:48 8 978 196 4 SO 0 96.6 753
14:46:50 8 978 184 12 S 0 96.6 761
14:49:47 8 978 184 2 SO 0 96.6 764
14:52:48 8 977 178 3 S 0 96.6 767
14:55:46 8 978 173 9 S 0 96.6 769
14:58:47 9 977 194 4 SO 0 96.6 781
15:01:47 9 977 184 5 S 0 96.6 778
15:04:47 9 977 191 9 S 0 96.6 777
15:07:47 9 977 196 7 S 0 96.6 772
15:10:48 9 977 190 18 SO 0 96.6 764
15:13:45 9 976 176 8 S 0 96.6 773
15:16:47 9 976 177 13 SO 0 96.6 773
15:19:46 9 976 181 15 SO 0 96.6 774
15:22:50 10 976 178 29 SW 0 96.6 775
15:25:47 10 976 181 7 W 0 96.6 776
15:28:45 10 976 181 10 S 0 96.6 766
15:31:49 10 976 168 13 SO 0 96.2 764
15:34:47 10 976 169 16 SW 0 95.5 767
15:37:47 10 976 169 13 S 0 95 766
15:40:46 10 976 170 7 S 0 94.5 767
15:43:50 10 976 170 8 SO 0 93.8 756
15:46:48 10 976 173 10 N 0 93.6 758
15:49:49 10 976 174 9 SO 0 93.4 756
15:52:47 10 976 171 17 S 0 93.3 748
15:55:48 10 976 168 15 SW 0 93.3 755
15:58:48 11 976 161 16 SW 0 91.8 749
16:01:51 11 976 160 10 SW 0 90.8 735
16:04:47 11 975 156 15 S 0 90.7 726
16:07:46 11 976 155 12 SW 0 90.8 723
16:10:48 11 975 153 20 S 0 90.7 737
16:13:48 11 975 151 12 SO 0 90 735
16:16:47 11 975 150 12 SW 0 90 734
16:19:51 11 975 155 16 SO 0 89.7 721
16:22:51 11 973 160 11 SO 0 89.6 723
16:25:48 11 974 168 9 SW 0 89.6 720
16:28:49 11 974 178 16 SO 0 89.8 709
16:31:47 11 973 175 13 S 0 90 702
16:34:49 11 974 149 19 SW 0 89.2 702
16:37:47 11 973 155 7 0 89.1 697
16:40:50 11 974 140 19 SO 0 88.3 690
16:43:48 11 973 163 8 S 0 87.8 685
16:46:50 11 974 184 6 S 0 88 682
16:49:48 11 973 174 13 SW 0 87.8 670
16:52:49 11 973 178 14 SW 0 87.4 664
16:55:47 11 973 186 16 0 87.2 664
16:58:48 12 973 174 14 S 0 86.2 661
17:01:49 12 973 172 12 SO 0 85 659
17:04:46 12 973 162 13 S 0 84.4 645
17:07:48 12 973 158 27 0 84.1 644
17:10:48 12 973 154 11 S 0 83.6 635
17:13:48 12 973 155 11 W 0 83.2 637
17:16:47 12 974 155 23 SW 0 82.7 629
17:19:49 12 973 152 14 0 82.8 623
17:22:48 12 972 140 12 SO 0 83 617
17:25:49 12 972 107 15 S 0 82.6 612
17:28:46 12 973 87 11 S 0 82.5 609
17:31:47 12 973 63 16 S 0 82.7 609
17:34:47 12 973 47 12 S 0 82.5 601
17:37:46 12 972 33 11 S 0 82.4 594
17:40:47 12 973 21 18 SW 0 82.5 592
17:43:46 12 973 15 17 N 0 82.8 588
17:46:47 12 973 11 10 S 0 83.1 586
17:49:51 12 972 6 14 S 0 84.8 582
17:52:45 11 973 3 24 SO 0 85.6 571
17:55:44 11 973 0 13 S 0 87.6 573
17:58:50 11 973 0 20 SO 0 89.8 566
18:01:45 11 973 0 15 S 0.2575 91.6 563
18:04:51 10 973 0 12 SW 0 90.9 550
18:07:49 10 973 0 32 SW 0 86.7 547
18:10:30 10 973 0 36 W 0 79.7 548
18:13:46 9 973 0 25 SO 0.2575 77.7 545
18:16:46 9 973 0 17 S 0 77.8 539
18:19:47 9 973 0 8 SW 0 80.6 525
18:22:46 9 973 0 11 SW 0 81.3 527
18:25:48 9 972 0 15 O 0 82.1 524
18:28:44 9 972 0 13 S 0 80.9 527
18:31:48 9 972 0 17 S 0 76.2 519
18:34:44 10 973 0 9 SW 0 75.3 512
18:37:46 9 973 0 14 O 0 73 509
18:40:46 10 973 0 17 SW 0 72 515
18:43:48 10 973 0 9 W 0 68.3 516
18:46:46 10 973 0 5 SO 0 69.9 507
18:49:46 9 973 0 8 S 0 68.7 500
18:52:47 9 973 0 13 SW 0 68.3 501
18:55:48 9 973 0 14 S 0 67.6 498
18:58:47 9 973 0 5 NW 0 66.4 495
19:01:48 9 973 0 10 W 0 67.8 495
19:04:46 9 973 0 14 SW 0 67.7 492
19:07:46 9 973 0 8 SW 0 68.3 483
19:10:47 9 973 0 8 NW 0 66.3 483
19:13:45 9 973 0 8 S 0 65.5 480
19:16:45 9 973 0 5 SW 0 65 486
19:19:47 9 973 0 6 S 0 64.6 481
19:22:45 9 973 0 15 O 0 64.6 478
19:25:49 9 973 0 19 SO 0 62.6 471
19:28:44 9 973 0 8 N 0 62 471
19:31:45 9 973 0 11 S 0 63.3 445
19:34:45 9 973 0 8 S 0 63.1 436
19:37:47 9 973 0 17 SO 0 62.9 442
19:40:46 9 973 0 14 S 0 61.5 457
19:43:46 9 973 0 15 S 0 60.1 458
19:46:47 9 972 0 13 SW 0 59.7 465
19:49:46 9 973 0 27 S 0 59.8 469
19:52:46 9 973 0 21 SW 0 58.7 467
19:55:47 9 973 0 10 SW 0 58.6 483
19:58:47 9 973 0 10 SW 0 60 485
20:01:49 9 973 0 5 SW 0 59.8 486
20:04:49 9 973 0 13 NW 0 59.3 486
20:07:49 9 973 0 28 SW 0 60.5 489
20:10:47 9 973 0 21 S 0 64.3 492
20:13:49 8 973 0 11 NW 0 69.2 497
20:16:50 8 973 0 15 O 0 72.9 509
20:19:46 8 973 0 11 SW 0 76.1 512
20:22:46 7 974 0 19 SW 0 76.7 516
20:25:47 7 973 0 19 SW 0 80.1 512
20:28:46 7 973 0 11 O 0 81.6 509
20:31:48 7 973 0 10 W 0 82.8 510
20:34:48 7 974 0 17 NW 0 83.1 513
20:37:47 7 974 0 33 SW 0 82.4 506
20:40:47 7 973 0 35 SW 0 81.6 504
20:43:47 7 973 0 12 SW 0 80.6 504
20:46:47 7 973 0 16 SW 0 78.7 510
20:49:46 7 973 0 11 S 0 78.3 521
20:52:46 7 974 0 4 W 0 78.9 521
20:55:48 7 974 0 18 NW 0 78 528
20:58:48 7 973 0 17 SO 0 76.6 529
21:01:46 7 975 0 27 SW 0 75.8 530
21:04:47 7 974 0 10 SW 0 75.3 539
21:07:31 6 974 0 6 SW 0 68.3 533
21:10:46 7 975 0 9 NO 0 71.7 536
21:13:44 7 974 0 13 W 0 71.3 536
21:16:47 7 975 0 16 NW 0 69.6 538
21:19:46 7 975 0 10 N 0 67.2 551
21:22:47 7 974 0 28 SW 0 67 568
21:25:48 7 975 0 20 SO 0 66.6 589
21:28:47 8 975 0 11 SW 0 66 592
21:31:47 8 975 0 31 W 0 66.1 579
21:34:45 8 976 0 24 0 65.4 574
21:37:48 8 975 0 11 SW 0 65.6 568
21:40:46 8 976 0 7 NO 0 66 583
21:43:46 7 976 0 8 O 0 65.9 589
21:46:49 7 976 0 6 NW 0 65.4 604
21:49:49 7 976 0 28 NW 0 68.7 603
21:52:46 7 976 0 7 W 0 71.7 601
21:55:46 7 976 0 1 S 0 75.4 592
21:58:46 6 976 0 6 SW 0 76.5 594
22:01:46 6 976 0 0 SO 0 77.8 573
22:04:45 6 976 0 5 S 0 78.9 580
22:07:45 6 976 0 9 0 79.7 583
22:10:47 6 976 0 11 O 0 80.3 598
22:13:47 6 977 0 9 S 0 81 604
22:16:47 5 976 0 9 SW 0 81.1 608
22:19:45 5 976 0 9 S 0 81.6 530
22:22:44 5 976 0 6 0 81.6 535
22:25:47 5 976 0 13 SW 0 81.7 539
22:28:48 6 976 0 11 W 0 81.2 541
22:31:47 6 976 0 8 SW 0 80.7 536
22:34:48 6 977 0 23 SW 0 79.5 535
22:37:48 6 976 0 0 S 0 79.1 538
22:40:46 6 976 0 0 S 0 78.8 539
22:43:32 5 977 0 0 SO 0 71.8 538
22:46:47 6 976 0 0 SW 0 75.6 530
22:49:46 6 977 0 0 SW 0 74.8 527
22:52:45 6 977 0 0 S 0 74 529
22:55:45 6 977 0 0 W 0 72.1 532
22:58:46 6 977 0 0 SW 0 69.8 536
23:01:45 6 976 0 0 SO 0 69.1 541
23:04:46 7 977 0 0 SW 0 67.8 538
23:07:46 7 977 0 0 N 0 67.4 529
23:10:46 7 978 0 0 S 0 65.9 527
23:13:46 7 977 0 0 S 0 64.3 524
23:16:45 7 978 0 0 N 0 63.3 533
23:19:46 7 979 0 0 S 0 62.7 539
23:22:47 7 978 0 0 S 0 63.5 544
23:25:47 7 978 0 0 S 0 62.6 542
23:28:48 7 978 0 0 NW 0 62.2 536
23:31:46 7 978 0 0 SW 0 62.8 536
23:34:44 7 978 0 0 O 0 61.6 535
23:37:47 7 978 0 0 S 0 60.7 536
23:40:48 7 979 0 0 SW 0 60.6 530
23:43:47 7 978 0 0 S 0 60.3 539
23:46:48 7 978 0 0 W 0 59.9 537
23:49:46 7 979 0 0 SO 0 59.9 548
23:52:47 7 977 0 0 NW 0 60 556
23:55:47 7 979 0 0 S 0 59.7 553
23:58:46 7 980 0 0 O 0 58.8 551

Letzte Änderung : 22-Jul-2022
Copyright Jens Köhler, Wolfsburg, Obere Dorfstraße 10d